Regional Weather Roundup
Issued by NWS Kansas City/Pleasant Hill, MO

Home | Current Version | Previous Version | Graphics & Text | Print | Product List | Glossary Off
Versions: 1 2 3 4 5 6 7 8 9 10 11 12 13 14 15 16 17 18 19 20 21 22 23 24 25 26 27

000
ASUS43 KEAX 270910
RWREAX

WEATHER ROUNDUP FOR EASTERN KANSAS AND NORTHWEST MISSOURI
NATIONAL WEATHER SERVICE KANSAS CITY/PLEASANT HILL MO
400 AM CDT WED JUL 27 2016

KSZ040-057-103>105-MOZ028-029-037-043-271000-
...KANSAS CITY METROPOLITAN AREA...

CITY           SKY/WX    TMP DP  RH WIND       PRES   REMARKS
K.C. INTL      CLEAR     70  66  87 E5        30.00S
K.C. DOWNTOWN  PTCLDY    74  67  78 CALM      29.99R
LEES SUMMIT    MOCLDY    72  68  87 N6        30.01R
OLATHE - IXD   MOCLDY    72  68  87 NE5       30.01R
OLATHE - OJC   NOT AVBL
LAWRENCE       CLOUDY    70  68  93 CALM      30.00R

$$

MOZ001>008-011>017-020>025-030>033-038>040-044>046-053-054-271000-
...NORTHERN AND CENTRAL MISSOURI...

CITY           SKY/WX    TMP DP  RH WIND       PRES   REMARKS
ST. JOSEPH     CLOUDY    66  64  93 NE3       30.01S
MOSBY          SUNNY     68  66  94 CALM      30.00R
WHITEMAN AFB   MOCLDY    71  71 100 E2        29.98R
CLINTON        CLEAR     72  72 100 CALM      29.99R FOG
SEDALIA        CLOUDY    73  70  90 CALM      30.00R
WARSAW         NOT AVBL
CHILLICOTHE      N/A     68  66  93 CALM      30.01S
KIRKSVILLE     PTCLDY    63  62  97 N3        30.02R

$$

MOZ041-047>049-056>058-063>065-088>090-097-271000-
...EASTERN AND SOUTHERN MISSOURI...

CITY           SKY/WX    TMP DP  RH WIND       PRES   REMARKS
ST. LOUIS INTL CLOUDY    79  74  84 S5        29.98R
SPIRIT OF STL  CLOUDY    75  74  96 CALM      29.97R
COLUMBIA       CLOUDY    73  72  96 CALM      30.00R
JEFFERSON CITY PTCLDY    73  71  93 CALM      29.98R
ROLLA          CLOUDY    71  71 100 SE3       29.99R
OSAGE BEACH    CLOUDY    71  71 100 CALM      30.00R FOG
SPRINGFIELD    MOCLDY    73  70  90 SE5       29.99S
BRANSON        FOG       73  73 100 SE5       30.00F VSB 3/4
JOPLIN         CLEAR     72  71  97 NE5       29.98R FOG
WEST PLAINS    CLEAR     72  69  90 CALM      30.02R

$$

IAZ060-094-KSZ022-034>040-054-083-096-NEZ052-066-093-271000-
...KANSAS...SOUTHEAST NEBRASKA AND IOWA...

CITY           SKY/WX    TMP DP  RH WIND       PRES   REMARKS
TOPEKA         PTCLDY    70  67  90 CALM      30.00R
MANHATTAN      CLEAR     69  67  93 CALM      30.01R
EMPORIA        PTCLDY    70  69  97 CALM      30.01R
CHANUTE        CLEAR     72  71  97 CALM      29.98R
WICHITA        PTCLDY    76  71  85 NE5       29.98R
OMAHA          CLOUDY    74  66  76 S5        30.02R
LINCOLN        MOCLDY    73  66  78 W10       30.05S
FALLS CITY     PTCLDY    67  66  97 CALM      30.01R
LAMONI         PTCLDY    67  65  93 N3        30.02R
DES MOINES     PTCLDY    71  65  81 CALM      30.00S

$$





USA.gov is the U.S. government's official web portal to all federal, state and local government web resources and services.